Ketchikan, AK

10:16 PM AKDT on September 20, 2018 (GMT -0800)
Ketchikan International

Weather History for PAKT - March, 2018

Change the Weather History Date:

Wednesday, March 28, 2018

  Actual Average Record
Temperature  
Mean Temperature 39 °F 39 °F  
Max Temperature 46 °F 46 °F 56 °F (1961)
Min Temperature 32 °F 33 °F 23 °F (1971)
Degree Days  
Heating Degree Days 26 26  
Month to date heating degree days 708 769  
Moisture  
Dew Point 35 °F    
Average Humidity 81    
Maximum Humidity 93    
Minimum Humidity 57    
Precipitation  
Precipitation 0.01 in 0.34 in 3.10 in (1966)
Month to date precipitation 6.20 9.87  
Year to date precipitation 26.63 35.80  
Sea Level Pressure  
Sea Level Pressure 30.36 in    
Wind  
Wind Speed 5 mph (SSE)    
Max Wind Speed 12 mph    
Max Gust Speed 14 mph    
Visibility 10 miles    
Events Rain    
T = Trace of Precipitation, MM = Missing Value Source: NWS Daily Summary

Daily Weather History Graph

Daily Weather History Graph

Search for Another Location

Airport or City:

Astronomy

Mar. 28, 2018 Rise Set
Actual Time 6:27 AM AKDT 7:16 PM AKDT
Civil Twilight 5:50 AM AKDT 7:54 PM AKDT
Nautical Twilight 5:06 AM AKDT 8:38 PM AKDT
Astronomical Twilight 4:17 AM AKDT 9:27 PM AKDT
Moon 3:48 PM AKDT (3/28) 5:48 AM AKDT (3/28)
Length of Visible Light 14h 03m
Length of Day
12h 49m
Waxing Gibbous, 91% of the Moon is Illuminated
Mar 28
Waxing Gibbous
Mar 31
Full
Apr 7
Last Quarter
Apr 15
New
Apr 22
First Quarter

Hourly Weather History & Observations

Time (AKDT) Temp. Windchill Dew Point Humidity Pressure Visibility Wind Dir Wind Speed Gust Speed Precip Events Conditions
12:53 AM 37.0 °F 34.5 °F 33.1 °F 86% 30.36 in 10.0 mi South 3.5 mph - N/A   Scattered Clouds
1:53 AM 36.0 °F 32.1 °F 34.0 °F 93% 30.37 in 10.0 mi South 4.6 mph - N/A   Mostly Cloudy
2:53 AM 37.9 °F 35.5 °F 35.1 °F 89% 30.38 in 10.0 mi South 3.5 mph - N/A   Overcast
3:53 AM 36.0 °F 33.3 °F 34.0 °F 93% 30.38 in 10.0 mi South 3.5 mph - N/A   Partly Cloudy
4:46 AM 37.0 °F 34.5 °F 34.0 °F 89% 30.38 in 10.0 mi SSE 3.5 mph - N/A   Mostly Cloudy
4:53 AM 35.1 °F 31.0 °F 33.1 °F 92% 30.38 in 10.0 mi SSW 4.6 mph - N/A   Overcast
5:09 AM 37.0 °F 33.3 °F 34.0 °F 89% 30.38 in 10.0 mi SSW 4.6 mph - N/A   Overcast
5:53 AM 37.9 °F 35.5 °F 35.1 °F 89% 30.38 in 10.0 mi SE 3.5 mph - N/A   Overcast
6:06 AM 37.9 °F 34.4 °F 35.1 °F 89% 30.38 in 10.0 mi South 4.6 mph - N/A   Mostly Cloudy
6:53 AM 37.9 °F 34.4 °F 35.1 °F 89% 30.38 in 10.0 mi South 4.6 mph - N/A   Mostly Cloudy
7:53 AM 39.2 °F - 35.6 °F 87% 30.38 in 10.0 mi Calm Calm - N/A   Overcast
8:53 AM 41.0 °F 39.0 °F 37.4 °F 87% 30.38 in 10.0 mi SE 3.5 mph - N/A   Overcast
9:53 AM 42.8 °F 38.6 °F 37.4 °F 81% 30.39 in 10.0 mi ESE 6.9 mph - N/A   Overcast
10:53 AM 44.6 °F 40.7 °F 35.6 °F 71% 30.39 in 10.0 mi ESE 6.9 mph - N/A   Overcast
11:53 AM 45.0 °F 40.1 °F 35.1 °F 68% 30.38 in 10.0 mi East 9.2 mph - N/A   Overcast
12:53 PM 44.6 °F 39.7 °F 33.8 °F 66% 30.38 in 10.0 mi ESE 9.2 mph - N/A   Overcast
1:53 PM 46.4 °F 42.4 °F 32.0 °F 57% 30.38 in 10.0 mi ESE 8.1 mph - N/A   Overcast
2:53 PM 44.6 °F 41.4 °F 33.8 °F 66% 30.38 in 9.0 mi East 5.8 mph - N/A Rain Light Rain
3:53 PM 43.0 °F 40.3 °F 34.0 °F 71% 30.37 in 9.0 mi Variable 4.6 mph - 0.01 in Rain Light Rain
4:53 PM 44.6 °F - 35.6 °F 71% 30.36 in 10.0 mi Calm Calm - N/A   Overcast
5:53 PM 44.6 °F - 33.8 °F 66% 30.34 in 10.0 mi Calm Calm - N/A   Mostly Cloudy
6:53 PM 42.1 °F 37.1 °F 36.0 °F 79% 30.33 in 10.0 mi SE 8.1 mph - N/A   Mostly Cloudy
7:53 PM 39.9 °F 35.1 °F 35.1 °F 83% 30.33 in 10.0 mi SSE 6.9 mph - N/A   Scattered Clouds
8:53 PM 39.0 °F 34.8 °F 34.0 °F 82% 30.32 in 10.0 mi South 5.8 mph - N/A   Mostly Cloudy
9:35 PM 39.9 °F 35.8 °F 35.1 °F 83% 30.32 in 10.0 mi South 5.8 mph - N/A   Overcast
9:42 PM 39.9 °F 35.1 °F 35.1 °F 83% 30.31 in 10.0 mi South 6.9 mph - N/A   Overcast
9:53 PM 39.9 °F 35.8 °F 35.1 °F 83% 30.32 in 10.0 mi South 5.8 mph - N/A   Mostly Cloudy
10:53 PM 37.9 °F 35.5 °F 34.0 °F 86% 30.31 in 10.0 mi SSE 3.5 mph - N/A   Clear
11:53 PM 36.0 °F - 33.1 °F 89% 30.30 in 10.0 mi Calm Calm - N/A   Clear